Location: Bremen
(53.0793°N, 8.8017°E)
Time: 00:31:37
(UTC+02:00)

Altair - Pass Details

Date: 15 April 2024
Orbit: 1501 x 1682 km, 47.2° (Epoch: 19 May)

Event Time Altitude Azimuth Distance (km) Brightness Sun altitude
Rises 02:05:34 0° 275° (W) 4,828 10.1 -26.5°
Reaches altitude 10° 02:08:47 10° 271° (W) 3,816 9.5 -26.4°
Maximum altitude 02:18:03 54° 198° (SSW) 1,835 7.5 -26.0°
Drops below altitude 10° 02:26:59 10° 125° (SE) 3,683 9.3 -25.7°
Sets 02:30:03 0° 121° (ESE) 4,649 9.9 -25.5°
